Temperature
4 2 1 1 1 1 1 -0 -0 -1 -1 -1 -1 -2 -3 -3 -4 -5 -6 -7 -8 -9 -10 -10 -11 -11 -11 -11 -12 -12 -11 -11 -11 -11 -10 -9 -8 -6 -5 -5 -5 -4 -4
4 1 1 1 1 1 0 -0 -1 -1 -1 -2 -2 -3 -4 -5 -6 -6 -7 -8 -9 -9 -10 -11 -11 -12 -12 -12 -12 -12 -12 -12 -12 -11 -11 -10 -8 -5 -6 -6 -5 -5 -4
4 2 1 1 1 1 0 -0 -1 -1 -2 -2 -3 -3 -4 -6 -7 -7 -7 -8 -9 -10 -10 -11 -11 -12 -12 -12 -12 -12 -12 -12 -12 -12 -12 -11 -9 -10 -8 -6 -6 -5 -5
4 2 1 1 1 1 0 -1 -1 -2 -2 -3 -3 -4 -5 -6 -7 -8 -8 -9 -9 -10 -10 -11 -12 -12 -12 -12 -12 -12 -13 -13 -12 -12 -12 -12 -12 -11 -10 -8 -7 -6 -6
4 2 1 1 1 1 -0 -1 -1 -2 -2 -3 -4 -4 -6 -6 -7 -8 -9 -9 -9 -10 -10 -11 -11 -11 -12 -12 -12 -12 -12 -13 -13 -12 -12 -12 -12 -11 -11 -9 -8 -7 -6
3 2 1 1 1 0 -0 -1 -2 -2 -3 -3 -4 -5 -6 -7 -7 -8 -9 -10 -10 -10 -10 -11 -11 -11 -11 -12 -12 -12 -12 -12 -13 -12 -12 -12 -12 -11 -10 -10 -9 -8 -7
2 1 1 1 1 0 -1 -1 -2 -2 -3 -3 -4 -5 -6 -7 -8 -9 -10 -10 -10 -10 -10 -10 -11 -11 -11 -11 -11 -12 -12 -12 -12 -12 -12 -12 -12 -11 -11 -10 -9 -8 -7
1 1 1 1 0 -0 -1 -1 -2 -2 -3 -4 -5 -6 -7 -7 -8 -9 -10 -10 -11 -11 -11 -11 -11 -11 -11 -11 -11 -11 -11 -12 -12 -12 -12 -12 -11 -11 -11 -10 -9 -8 -7
1 1 1 1 0 -0 -1 -1 -2 -3 -3 -4 -5 -6 -7 -8 -8 -9 -10 -10 -11 -11 -11 -11 -11 -11 -11 -11 -11 -11 -11 -11 -11 -11 -11 -11 -10 -10 -10 -9 -9 -9 -8
1 0 1 1 0 -0 -1 -1 -2 -3 -3 -4 -5 -6 -7 -7 -8 -9 -10 -10 -11 -11 -11 -11 -11 -11 -10 -10 -10 -11 -10 -10 -10 -10 -10 -10 -10 -10 -9 -9 -9 -8 -8
1 1 1 1 0 -0 -1 -2 -2 -3 -4 -4 -5 -6 -7 -8 -8 -9 -10 -10 -11 -11 -11 -11 -11 -11 -11 -11 -11 -11 -11 -10 -10 -10 -10 -10 -10 -9 -9 -9 -9 -8 -8
1 1 1 1 0 -1 -1 -2 -3 -3 -4 -4 -5 -6 -7 -8 -9 -9 -10 -10 -11 -11 -11 -11 -11 -11 -11 -11 -11 -11 -11 -11 -11 -11 -10 -10 -10 -10 -9 -9 -9 -9 -8
1 1 1 0 -0 -1 -1 -2 -3 -3 -4 -5 -5 -6 -7 -8 -8 -9 -10 -10 -11 -11 -11 -12 -11 -11 -11 -11 -11 -11 -11 -11 -11 -11 -11 -11 -10 -10 -10 -9 -9 -9 -9
1 1 1 0 -0 -1 -2 -2 -3 -3 -4 -5 -5 -6 -7 -8 -8 -9 -9 -10 -11 -11 -12 -12 -12 -11 -11 -11 -11 -11 -11 -11 -11 -12 -12 -11 -11 -10 -10 -10 -9 -9 -9
0 1 1 1 -0 -1 -2 -2 -3 -3 -4 -5 -5 -6 -7 -7 -8 -9 -9 -10 -10 -11 -11 -12 -12 -11 -11 -10 -11 -11 -11 -11 -12 -12 -12 -12 -11 -11 -10 -10 -10 -10 -10
1 1 1 1 -0 -1 -2 -2 -3 -3 -4 -5 -5 -6 -7 -7 -8 -8 -9 -9 -10 -11 -11 -11 -11 -11 -11 -11 -10 -11 -11 -12 -12 -12 -12 -12 -12 -11 -11 -11 -11 -11 -10
3 2 2 1 0 -1 -1 -2 -3 -3 -4 -5 -5 -6 -7 -7 -8 -8 -9 -9 -10 -10 -11 -11 -11 -11 -11 -11 -11 -11 -11 -12 -12 -13 -13 -12 -12 -11 -11 -11 -11 -11 -11
4 3 2 1 0 -1 -1 -2 -3 -3 -4 -5 -5 -6 -6 -7 -7 -8 -8 -9 -9 -10 -10 -11 -11 -11 -11 -11 -11 -11 -11 -11 -12 -12 -13 -13 -12 -11 -11 -12 -12 -11 -11
5 4 2 1 0 -1 -1 -2 -3 -3 -4 -5 -5 -6 -6 -6 -7 -7 -8 -9 -9 -9 -10 -11 -11 -11 -11 -10 -11 -10 -11 -11 -12 -12 -12 -13 -12 -12 -11 -12 -12 -12 -11
5 3 2 1 -0 -1 -1 -2 -3 -3 -4 -5 -5 -5 -6 -6 -7 -7 -8 -8 -9 -9 -10 -10 -10 -10 -10 -10 -10 -10 -10 -11 -11 -12 -12 -13 -12 -12 -12 -12 -12 -12 -12
4 3 1 1 -0 -1 -1 -2 -3 -3 -4 -4 -5 -5 -5 -6 -6 -6 -7 -8 -8 -9 -10 -10 -10 -10 -10 -10 -10 -10 -10 -11 -11 -12 -12 -13 -13 -13 -13 -13 -13 -12 -12
4 2 1 0 -0 -1 -1 -2 -3 -3 -4 -4 -5 -5 -5 -5 -6 -6 -6 -7 -8 -8 -10 -10 -10 -10 -10 -10 -10 -10 -10 -11 -11 -12 -12 -13 -13 -13 -13 -13 -13 -13 -12
4 3 1 0 -0 -1 -1 -2 -3 -3 -4 -4 -4 -5 -5 -5 -5 -6 -6 -6 -7 -8 -10 -10 -10 -10 -10 -10 -10 -10 -10 -11 -11 -12 -12 -13 -13 -13 -13 -13 -13 -13 -13
4 3 1 0 -0 -1 -1 -2 -3 -3 -3 -4 -4 -4 -5 -5 -5 -5 -6 -6 -7 -8 -10 -11 -11 -11 -10 -10 -10 -10 -10 -11 -11 -12 -12 -13 -13 -13 -13 -13 -13 -13 -13
5 3 2 1 0 -1 -1 -2 -2 -3 -3 -4 -4 -4 -4 -5 -5 -5 -6 -6 -7 -8 -10 -10 -11 -11 -11 -10 -10 -10 -11 -11 -11 -12 -12 -12 -13 -13 -13 -13 -13 -13 -13
5 4 2 1 0 -1 -1 -2 -2 -3 -3 -4 -4 -4 -4 -4 -5 -5 -5 -6 -6 -7 -8 -9 -10 -11 -11 -11 -11 -11 -11 -11 -11 -11 -12 -12 -13 -13 -13 -13 -13 -13 -13
Wind_Speed
14 12 10 7 4 1 3 5 8 9 10 9 9 9 10 9 11 12 15 16 17 18 18 17 18 18 15 16 18 18 19 17 16 17 18 18 18 16 12 10 10 10 10
14 13 11 8 5 1 2 5 7 8 9 9 9 8 10 9 10 12 14 15 17 18 17 18 18 18 16 18 18 18 16 16 15 15 17 14 14 7 9 11 11 10 9
16 15 13 9 5 2 2 4 6 7 9 10 9 9 8 7 8 11 11 16 18 18 18 19 19 19 17 16 19 19 19 17 16 14 12 10 9 14 11 12 9 10 10
16 14 13 10 6 2 0 3 5 7 8 9 9 11 9 10 12 10 11 17 17 18 18 19 20 20 18 18 18 18 17 18 16 14 13 13 14 12 10 10 12 14 13
15 14 12 9 6 3 0 3 5 6 7 9 9 10 10 10 10 11 13 14 16 17 18 19 20 20 18 19 19 19 18 15 15 14 14 14 13 15 14 15 14 13 12
14 13 11 9 6 4 1 2 4 5 7 8 9 9 11 12 13 14 14 13 12 15 18 21 20 20 19 18 18 17 18 16 16 14 13 13 12 12 12 14 15 14 13
14 14 13 10 7 4 2 2 4 5 7 8 8 9 11 12 13 13 13 14 13 13 17 20 20 20 20 20 18 16 15 15 16 15 13 12 13 13 13 13 14 15 14
14 14 12 10 7 5 3 2 4 5 7 7 8 9 10 9 9 12 12 13 12 13 19 21 20 21 21 19 17 13 14 13 14 15 15 12 12 12 12 12 13 14 14
15 14 12 9 7 5 3 2 3 5 6 7 8 9 9 10 11 12 12 11 13 16 19 20 19 20 20 19 17 12 13 13 13 13 13 12 11 11 11 11 11 11 13
15 14 12 10 7 5 3 2 3 5 6 7 7 7 9 10 11 11 12 13 15 17 18 18 18 18 18 18 15 14 13 13 12 11 12 11 10 9 9 9 10 10 12
16 14 12 10 8 6 4 3 3 4 6 6 8 9 9 10 11 10 12 13 14 16 16 17 17 17 17 16 15 15 15 14 14 13 12 12 12 10 9 9 9 9 10
15 14 12 10 8 7 5 4 3 4 5 6 8 8 9 10 10 11 12 14 14 15 16 17 16 16 16 16 15 15 15 14 15 15 14 14 12 13 11 10 10 10 11
15 14 12 11 9 7 6 5 4 4 5 6 7 8 9 10 11 11 12 13 14 14 15 16 16 16 16 15 13 12 13 13 14 14 14 15 14 15 13 13 11 10 11
16 15 13 11 10 8 7 5 4 4 5 6 7 8 9 10 10 11 11 12 13 13 14 15 15 16 15 14 11 10 11 12 13 14 14 15 14 15 15 13 13 12 12
16 16 14 12 11 9 8 6 5 4 5 6 7 8 9 10 10 11 11 12 12 13 14 15 15 16 14 13 11 7 11 12 13 14 14 15 17 20 16 13 14 13 11
18 17 15 13 12 11 9 7 5 4 5 6 7 8 8 9 10 10 11 12 12 13 13 14 15 16 14 21 20 11 10 11 12 13 14 16 16 20 19 19 18 16 13
18 18 16 14 12 11 9 7 6 4 5 6 7 8 8 9 10 10 11 11 12 12 13 13 14 15 17 23 22 16 11 11 11 12 13 13 15 19 14 15 17 16 16
17 17 15 13 12 10 8 7 5 5 6 7 7 7 8 9 10 11 11 12 11 12 12 13 14 14 16 22 23 19 11 10 11 12 13 15 16 17 17 14 14 13 12
16 16 15 13 12 11 9 7 6 6 6 7 7 7 8 9 10 11 11 11 11 12 12 12 13 14 16 21 23 20 10 10 11 11 12 15 16 22 24 16 15 15 13
13 13 13 13 12 11 10 8 7 7 7 7 7 8 8 9 10 11 12 11 11 11 12 12 13 13 14 19 23 21 10 9 10 11 12 15 19 23 23 16 15 16 15
14 14 14 13 12 11 10 9 8 8 7 6 7 8 9 9 10 11 11 11 11 12 12 12 12 13 14 17 20 21 10 8 9 10 10 12 21 22 22 19 15 18 16
15 16 14 12 11 11 11 10 10 8 6 6 7 8 8 8 8 10 11 11 10 11 11 12 12 11 13 15 18 20 16 13 8 9 10 12 20 20 20 17 20 21 17
16 15 14 13 11 12 12 11 9 7 6 6 7 7 8 8 8 9 10 9 8 8 10 10 11 11 12 14 18 15 15 16 10 8 12 16 18 17 14 18 21 17 12
16 15 15 14 13 13 13 11 8 7 6 6 6 6 7 7 7 7 7 7 7 8 10 10 11 11 12 12 12 10 10 12 10 8 11 14 14 13 14 14 14 12 12
16 16 16 15 15 14 13 12 10 8 7 6 6 6 6 6 6 6 6 7 7 8 10 10 10 11 12 15 20 14 11 11 11 10 8 8 9 10 10 11 11 12 12
17 16 16 16 15 14 13 12 11 10 8 6 5 4 4 5 5 6 6 5 7 10 11 11 12 11 15 20 19 18 17 16 16 11 8 9 9 10 10 11 11 11 12
Wind_Direction
209 193 189 186 186 223 345 348 346 348 348 346 344 341 340 336 337 337 335 333 333 331 327 322 320 318 313 311 309 308 307 306 306 305 305 302 289 275 272 279 284 279 281
205 196 193 192 199 237 342 345 347 346 349 345 338 331 325 325 327 330 330 331 330 327 323 319 317 314 312 309 308 308 305 303 305 306 308 309 305 281 311 295 281 283 292
211 199 195 195 198 221 347 345 342 340 344 342 335 331 327 326 334 335 331 329 326 323 320 317 316 313 311 307 307 306 302 303 302 297 296 299 299 322 297 293 293 301 301
215 202 194 192 191 178 9 334 333 335 342 341 338 339 335 334 333 330 324 324 324 322 321 319 317 314 310 307 306 304 300 298 297 296 289 281 287 290 299 300 302 300 296
210 198 189 181 171 164 233 320 325 332 340 340 339 335 331 329 326 327 324 326 325 324 324 324 321 318 314 310 306 304 299 295 292 292 292 287 283 274 275 289 297 299 296
199 189 175 167 167 172 218 299 317 329 338 338 337 334 331 330 328 329 328 328 326 325 328 329 325 322 319 314 310 305 300 295 291 289 287 284 282 282 283 287 294 297 299
189 181 175 176 180 192 225 282 314 329 337 335 334 332 329 327 327 328 327 327 326 327 328 330 327 325 322 320 316 308 303 297 293 288 285 280 276 276 276 279 287 293 296
189 184 180 179 183 195 223 274 314 327 333 332 330 327 327 325 322 324 323 322 322 323 324 326 326 327 327 327 325 316 309 300 295 290 286 282 278 273 271 274 282 291 297
190 185 180 180 185 196 217 269 308 320 327 326 325 323 327 325 321 321 321 320 322 323 324 325 327 328 330 331 331 326 321 310 300 295 292 287 283 279 274 271 273 281 293
190 186 182 182 186 195 210 246 291 312 318 319 322 318 321 322 321 319 321 322 323 325 325 328 329 329 331 333 331 331 331 326 320 312 307 304 297 294 290 284 281 275 279
191 186 183 182 185 194 210 240 276 301 309 316 317 317 319 320 320 319 321 323 324 326 327 328 329 330 331 331 332 335 336 334 332 331 325 323 320 315 306 301 298 292 289
190 185 181 182 190 200 211 232 263 289 304 310 311 314 317 320 321 321 322 323 324 327 327 328 329 330 330 330 328 334 338 338 336 336 334 329 328 326 324 317 309 306 302
186 183 183 189 196 202 211 226 251 278 295 303 307 311 317 321 322 322 322 323 325 326 328 329 329 327 328 329 325 334 337 339 339 338 336 333 331 332 332 326 321 316 310
189 188 190 193 197 201 209 222 243 266 287 297 302 309 317 320 319 319 320 323 324 326 328 327 326 325 326 325 320 335 338 340 340 338 337 333 330 330 333 332 331 327 317
194 194 194 193 194 199 206 215 233 255 276 290 298 306 312 315 315 316 319 321 323 325 325 325 325 325 326 324 329 339 344 345 342 340 338 333 334 334 337 337 336 332 324
199 197 195 193 195 198 201 206 222 244 269 280 287 295 304 310 312 315 317 319 321 323 324 324 324 324 324 325 338 353 346 349 345 340 337 334 334 335 337 338 338 335 330
199 196 195 195 193 193 191 197 211 230 254 267 277 288 296 302 307 311 314 318 320 320 319 319 320 320 321 326 333 344 343 346 345 340 338 337 336 339 335 339 339 333 332
197 195 192 188 185 179 178 186 202 229 250 264 271 278 287 296 303 309 312 317 317 316 314 316 318 319 320 325 328 335 334 336 340 339 337 335 337 338 349 345 338 333 330
194 190 185 178 172 172 174 178 204 226 243 256 266 276 282 290 299 305 311 316 315 313 312 315 319 320 321 323 324 332 324 330 335 336 337 337 340 344 352 349 341 337 338
182 175 170 168 171 174 172 184 208 223 238 251 266 278 285 290 297 304 310 313 313 310 313 315 319 318 317 318 322 328 323 328 331 335 337 339 345 349 353 352 346 343 342
173 169 167 172 176 170 173 194 212 226 236 252 270 280 286 292 298 301 306 309 310 310 313 316 320 320 320 321 322 328 336 331 330 334 337 339 346 350 352 354 351 348 346
174 172 172 176 172 171 181 201 216 222 227 248 268 280 289 294 294 302 307 311 313 313 317 320 323 324 326 326 326 333 342 342 333 333 336 339 345 349 351 354 354 354 352
178 177 177 174 175 182 192 206 211 206 219 245 266 281 291 294 297 304 309 315 319 318 319 321 323 327 329 331 335 341 344 345 344 334 335 339 345 347 348 352 356 357 355
182 178 178 182 187 191 199 208 201 198 217 244 266 282 291 298 305 307 309 315 317 319 321 326 329 329 332 339 347 353 350 348 347 340 335 339 343 347 349 352 355 357 357
183 182 186 190 192 191 198 201 199 199 215 237 258 278 288 298 305 309 311 311 310 316 323 327 327 330 333 341 350 357 355 353 354 344 339 346 348 352 354 354 356 357 357
182 185 190 193 193 191 195 195 193 196 207 225 244 266 285 298 308 315 316 307 307 321 329 331 332 330 334 341 349 354 355 354 355 351 347 348 348 349 350 351 353 355 357
Height
1604 1603 1602 1602 1601 1600 1597 1594 1591 1587 1583 1579 1575 1570 1564 1559 1552 1546 1540 1534 1528 1522 1516 1511 1505 1499 1493 1487 1482 1476 1469 1463 1458 1451 1442 1435 1429 1425 1422 1420 1418 1417 1415
1599 1598 1598 1599 1598 1597 1595 1591 1588 1584 1580 1576 1571 1566 1560 1554 1548 1543 1537 1531 1525 1519 1513 1507 1502 1496 1489 1483 1478 1472 1465 1459 1455 1449 1441 1433 1426 1420 1418 1416 1414 1412 1411
1594 1594 1595 1595 1595 1594 1591 1588 1585 1581 1577 1573 1568 1563 1557 1552 1547 1540 1534 1528 1522 1516 1510 1504 1498 1492 1486 1479 1473 1468 1461 1455 1450 1447 1442 1435 1426 1421 1415 1413 1411 1409 1406
1589 1590 1591 1592 1591 1590 1588 1585 1581 1578 1574 1570 1565 1559 1554 1548 1543 1536 1531 1525 1519 1514 1508 1501 1495 1489 1482 1475 1469 1463 1457 1451 1445 1441 1438 1434 1429 1424 1415 1411 1408 1405 1402
1584 1586 1586 1587 1587 1586 1584 1582 1578 1575 1571 1567 1562 1557 1551 1546 1540 1534 1528 1522 1517 1511 1505 1499 1492 1485 1478 1471 1464 1458 1452 1446 1441 1437 1433 1429 1425 1421 1417 1409 1404 1401 1398
1579 1581 1582 1583 1583 1583 1581 1578 1575 1572 1568 1564 1559 1554 1548 1543 1537 1531 1525 1519 1513 1508 1502 1496 1489 1482 1475 1467 1460 1453 1447 1441 1437 1432 1428 1425 1421 1417 1413 1408 1402 1398 1394
1574 1575 1577 1579 1579 1579 1577 1575 1572 1569 1566 1561 1556 1551 1546 1540 1534 1528 1522 1516 1511 1505 1499 1493 1486 1479 1472 1464 1457 1449 1443 1437 1432 1428 1424 1420 1416 1413 1409 1405 1400 1395 1390
1569 1571 1573 1575 1575 1575 1573 1572 1569 1566 1562 1558 1553 1548 1543 1537 1532 1526 1520 1514 1509 1503 1497 1490 1484 1477 1470 1463 1455 1448 1441 1434 1429 1424 1420 1415 1411 1408 1405 1402 1398 1393 1387
1565 1567 1569 1571 1571 1571 1570 1568 1566 1563 1559 1555 1550 1545 1540 1534 1529 1523 1518 1512 1506 1500 1494 1488 1482 1475 1468 1461 1454 1447 1440 1433 1427 1421 1416 1412 1408 1404 1401 1398 1395 1392 1386
1560 1563 1564 1566 1567 1567 1566 1564 1562 1560 1556 1552 1547 1542 1537 1532 1526 1521 1515 1510 1504 1498 1492 1486 1479 1473 1467 1460 1453 1446 1439 1433 1426 1421 1415 1410 1406 1402 1398 1395 1392 1389 1385
1555 1557 1560 1562 1562 1562 1562 1561 1559 1556 1553 1549 1544 1539 1534 1529 1524 1518 1513 1507 1501 1495 1489 1483 1477 1471 1465 1458 1452 1446 1439 1432 1426 1420 1415 1409 1405 1400 1396 1393 1389 1386 1382
1550 1553 1555 1557 1558 1558 1558 1557 1555 1552 1549 1545 1541 1536 1532 1526 1521 1516 1510 1504 1499 1493 1487 1481 1475 1469 1463 1456 1451 1444 1438 1431 1425 1419 1413 1408 1404 1399 1395 1391 1387 1383 1379
1545 1548 1550 1552 1553 1554 1554 1553 1551 1549 1546 1542 1538 1534 1529 1524 1519 1513 1507 1502 1496 1490 1484 1479 1473 1467 1461 1455 1449 1443 1437 1430 1424 1418 1413 1408 1403 1398 1394 1389 1384 1380 1376
1539 1542 1545 1547 1548 1549 1549 1549 1547 1545 1542 1539 1535 1531 1526 1521 1516 1511 1505 1499 1493 1488 1482 1476 1470 1464 1459 1453 1447 1442 1435 1429 1423 1417 1412 1407 1402 1397 1392 1387 1382 1377 1373
1533 1536 1539 1542 1543 1544 1545 1544 1543 1541 1539 1536 1532 1528 1524 1519 1514 1508 1503 1497 1491 1485 1479 1473 1468 1462 1456 1451 1446 1440 1434 1428 1421 1416 1411 1406 1401 1396 1391 1386 1380 1375 1370
1527 1530 1533 1536 1538 1539 1540 1540 1539 1538 1535 1533 1529 1525 1521 1516 1511 1506 1500 1494 1489 1483 1477 1471 1465 1460 1455 1449 1445 1439 1433 1427 1421 1415 1409 1404 1399 1394 1389 1383 1378 1373 1368
1520 1524 1527 1531 1533 1534 1535 1535 1535 1534 1532 1529 1526 1522 1518 1513 1508 1503 1497 1492 1486 1481 1475 1469 1464 1458 1453 1448 1443 1438 1433 1427 1421 1415 1409 1403 1398 1392 1386 1380 1374 1369 1365
1514 1518 1522 1525 1528 1529 1530 1531 1531 1530 1528 1526 1523 1519 1515 1511 1506 1501 1495 1490 1484 1479 1473 1467 1462 1457 1451 1446 1441 1436 1431 1426 1420 1414 1409 1403 1397 1391 1386 1378 1372 1367 1362
1510 1514 1517 1520 1523 1524 1526 1526 1526 1526 1524 1522 1520 1516 1512 1508 1503 1498 1493 1487 1482 1476 1471 1466 1461 1456 1450 1445 1439 1434 1429 1424 1419 1414 1408 1403 1397 1391 1384 1377 1371 1365 1359
1505 1509 1512 1515 1517 1520 1521 1522 1522 1521 1520 1519 1516 1513 1509 1505 1500 1496 1490 1485 1480 1474 1469 1465 1460 1454 1449 1443 1438 1432 1427 1422 1417 1412 1407 1402 1397 1390 1384 1377 1371 1364 1357
1501 1504 1507 1510 1513 1515 1516 1517 1517 1517 1516 1515 1513 1510 1507 1503 1498 1493 1488 1483 1477 1472 1468 1463 1458 1453 1448 1442 1437 1431 1426 1421 1416 1411 1406 1400 1395 1389 1383 1377 1371 1365 1357
1495 1498 1501 1504 1507 1509 1511 1512 1513 1513 1512 1511 1509 1507 1504 1500 1496 1491 1486 1481 1476 1470 1465 1461 1456 1452 1447 1442 1436 1431 1426 1421 1415 1410 1405 1400 1394 1388 1382 1377 1371 1364 1357
1489 1492 1496 1499 1502 1504 1506 1507 1508 1508 1508 1507 1506 1504 1501 1498 1494 1489 1484 1479 1474 1468 1463 1459 1455 1450 1446 1441 1435 1430 1425 1420 1415 1410 1404 1399 1394 1388 1382 1377 1371 1364 1358
1483 1486 1489 1492 1495 1498 1500 1502 1503 1504 1504 1503 1502 1501 1498 1495 1492 1488 1483 1477 1472 1466 1462 1458 1454 1449 1445 1440 1435 1430 1424 1419 1414 1409 1404 1399 1394 1389 1384 1378 1372 1366 1361
1476 1479 1482 1486 1489 1493 1495 1497 1498 1499 1499 1499 1499 1498 1496 1493 1490 1486 1482 1476 1471 1466 1461 1456 1452 1448 1444 1440 1436 1431 1425 1420 1415 1409 1404 1400 1395 1390 1385 1380 1374 1369 1364
1468 1471 1475 1479 1483 1486 1489 1491 1492 1494 1495 1495 1495 1494 1493 1491 1488 1485 1481 1476 1471 1466 1460 1455 1451 1447 1444 1439 1434 1430 1425 1420 1415 1410 1405 1401 1396 1391 1387 1382 1377 1372 1367